Tracking 19177 objects as of 24-May-2018
HD Live streaming from Space Station
objects crossing your sky now

COSMOS 469

Track COSMOS 469 now!
10-day predictions
COSMOS 469 is classified as:


NORAD ID: 5721
Int'l Code: 1971-117A
Perigee: 943.0 km
Apogee: 1,027.3 km
Inclination: 64.5 °
Period: 104.6 minutes
Semi major axis: 7356 km
RCS: 2.893 m2 (large)
Launch date: December 25, 1971
Source: Commonwealth of Independent States (former USSR) (CIS)
Launch site: TYURATAM MISSILE AND SPACE COMPLEX (TTMTR)
aabbcc
Your satellite tracking list
Your tracking list is empty




NASA's NSSDC Master Catalog

Two Line Element Set (TLE):
1 05721U 71117A   18144.32606641 -.00000091  00000-0 -44486-6 0  9992
2 05721  64.4874  99.3693 0057298 228.1609 131.4543 13.76020075332031
Source of the keplerian elements: AFSPC